Wind_Speed
23 23 22 22 21 20 19 18 18 17 16 16 16 15 15 15 15 16 16 17 18 18 18 19 19 20 20 20 19 18 18 18 18 19 20 19 19 19 19 20 22 25 28 31 33 34 35 37 38 39 40 42 43 44 44 44 44 43 43 44 48 51 51 51 49 48 47 45 43 42 39 36 34 30 31 32 40 44 36 32 34 30 24 23 19 18 23 21
24 24 23 23 22 21 20 18 17 17 16 16 16 16 15 15 16 16 17 17 17 18 18 18 18 19 20 20 19 19 19 18 18 19 20 20 19 19 19 19 20 22 23 26 28 30 32 34 36 37 38 39 41 42 43 44 44 45 46 47 52 54 53 52 50 49 48 46 43 42 40 38 36 32 31 29 31 40 39 35 37 35 26 25 23 19 22 22
25 25 24 24 23 22 21 19 18 16 16 16 17 16 16 16 17 18 19 19 19 19 19 19 18 18 19 18 18 19 18 18 18 19 20 20 20 20 19 19 20 20 21 22 23 26 28 30 33 34 35 37 39 40 41 42 44 46 46 50 55 54 52 51 51 50 48 46 43 43 42 39 38 33 32 32 29 33 39 38 38 36 28 24 22 22 24 23
26 26 25 25 24 24 22 21 19 17 16 16 17 17 17 18 19 19 20 21 21 21 21 20 19 18 18 17 16 16 17 17 18 19 19 20 20 20 20 21 21 20 20 21 21 22 24 26 29 31 33 35 38 39 41 42 42 44 47 52 54 52 51 51 49 47 46 45 44 43 42 41 40 36 33 33 33 34 37 39 40 35 28 22 21 25 29 27
26 26 25 25 24 23 23 21 19 18 17 16 17 18 18 19 20 21 21 22 21 22 22 20 19 17 17 17 16 15 15 15 16 17 17 18 18 19 19 20 21 22 21 21 21 21 22 23 25 27 29 31 35 38 40 40 41 43 48 52 52 51 51 50 47 44 43 43 44 43 43 44 40 37 36 33 35 38 37 35 36 35 30 26 22 21 25 30
26 26 25 25 24 23 22 21 20 18 17 16 17 18 19 19 20 21 22 22 21 21 21 19 18 17 17 17 16 15 14 14 15 15 16 16 16 16 17 18 19 20 21 21 22 22 22 22 23 24 26 28 30 35 38 39 40 43 48 49 49 50 50 47 44 42 43 42 42 42 42 42 37 36 38 36 37 39 38 35 32 32 31 28 24 22 23 28
26 26 26 25 24 23 22 21 20 19 18 17 17 18 19 19 20 21 21 21 20 19 19 19 19 19 19 18 17 15 14 14 15 14 14 15 15 16 16 16 17 18 18 19 20 21 22 23 23 23 24 25 27 31 35 37 39 43 47 47 47 49 49 48 42 38 41 42 42 42 42 41 39 40 40 39 39 37 35 37 37 34 31 29 24 24 26 28
27 26 26 25 25 24 23 22 21 20 19 18 18 19 19 19 20 20 20 19 18 18 19 19 20 20 20 20 18 15 13 14 15 14 14 14 13 14 15 15 16 17 18 18 19 19 20 22 23 24 24 25 26 28 31 35 38 42 46 47 47 47 47 49 46 41 38 39 42 42 44 45 44 43 41 40 40 38 34 35 40 39 34 31 25 22 25 29
27 27 26 26 25 25 24 23 22 21 20 20 20 20 20 20 20 20 20 18 17 18 19 20 21 21 21 21 19 16 14 13 13 13 14 13 12 13 13 14 16 17 19 20 20 21 21 21 23 23 24 24 25 26 27 31 35 39 44 46 47 46 45 47 48 47 41 37 38 42 47 48 45 42 42 44 42 39 37 36 40 41 37 34 29 23 23 26
27 27 27 26 26 25 24 23 23 22 21 21 21 21 21 21 21 21 20 19 18 18 19 21 22 22 20 19 18 15 14 13 11 12 13 13 12 12 12 13 14 16 18 20 21 22 22 23 24 24 24 24 25 25 25 28 32 36 40 43 45 46 46 46 46 46 45 41 37 39 46 47 44 42 45 49 46 41 39 39 40 42 41 38 33 27 23 24
27 27 27 26 26 25 25 24 23 22 22 22 22 22 22 22 22 22 21 20 20 20 19 19 20 20 18 17 17 15 13 13 12 12 13 13 13 12 13 13 13 15 17 18 19 21 23 24 25 25 24 24 26 26 26 27 29 33 37 40 42 43 44 44 44 43 43 45 42 38 41 44 43 45 51 52 48 44 41 41 42 41 42 39 36 32 24 20
26 27 27 26 26 26 25 24 23 22 22 23 23 23 23 23 23 23 22 21 20 18 16 15 16 16 16 16 15 14 13 13 13 13 13 13 12 12 13 14 14 15 17 17 18 20 22 24 26 26 24 25 27 25 24 26 29 32 34 36 39 40 41 42 42 41 40 43 44 40 39 42 45 50 56 54 49 47 44 43 43 43 43 41 38 37 29 20
27 27 27 26 26 26 25 24 23 23 23 23 24 24 24 24 24 23 22 19 17 14 13 12 12 13 13 14 14 13 13 13 13 13 14 13 13 12 12 13 14 15 17 16 17 19 21 23 25 26 25 27 28 25 23 25 28 30 31 33 36 36 40 42 40 40 40 40 39 37 39 44 50 55 57 53 51 49 47 45 44 43 44 43 40 38 35 27
27 27 27 26 26 26 25 24 23 24 24 24 24 25 25 25 24 22 19 16 14 13 12 11 11 11 12 12 12 12 12 12 12 13 14 15 15 14 13 13 12 14 16 16 16 18 21 22 24 25 26 27 28 27 27 26 25 26 26 28 31 33 38 39 36 37 39 39 36 31 37 48 51 55 58 54 51 50 49 48 46 45 44 43 42 39 37 34
27 27 27 26 26 26 25 24 24 24 24 24 25 25 25 24 22 19 16 14 14 13 11 9 9 8 8 8 9 10 10 11 12 13 14 16 17 17 16 15 14 14 14 14 14 16 19 21 22 24 24 26 26 27 29 28 26 24 23 24 25 28 34 34 31 32 33 34 34 29 35 48 51 54 56 52 51 51 51 50 48 47 46 44 42 39 38 37
27 27 27 26 27 26 26 25 24 23 24 24 25 26 25 22 20 17 15 14 13 10 8 7 7 5 5 8 9 9 9 10 11 12 14 16 17 18 19 19 18 16 14 12 12 13 16 17 19 21 22 24 25 27 27 28 29 27 25 25 23 22 25 25 21 22 24 25 28 31 37 45 48 51 53 50 49 51 52 51 50 49 47 46 43 40 39 37
27 27 27 27 27 26 26 25 24 23 23 24 24 25 24 21 19 16 15 13 10 7 6 8 7 3 5 9 9 7 7 8 10 12 14 15 17 18 19 20 19 18 15 11 9 11 13 14 16 18 20 22 24 24 23 24 28 28 25 24 22 19 20 18 12 11 15 19 24 30 40 46 45 46 49 48 48 49 52 52 51 49 48 47 44 42 41 39
27 27 27 27 26 27 27 25 24 23 23 24 24 24 22 20 18 16 14 11 7 6 6 9 9 4 5 11 9 7 6 7 8 10 13 14 16 18 18 18 17 16 14 10 9 10 12 14 15 17 19 20 21 22 22 22 21 16 15 18 18 19 21 18 14 10 8 14 22 27 38 46 46 44 44 44 45 48 50 51 51 50 48 46 44 44 43 41
27 27 27 27 26 27 26 25 24 23 24 23 23 22 20 20 18 15 12 9 7 7 8 9 9 7 11 13 10 9 10 8 7 8 12 14 14 16 16 15 14 13 12 9 8 9 12 15 17 19 20 19 16 17 21 22 18 14 14 16 16 17 18 16 16 16 11 14 21 26 34 41 42 43 43 40 39 45 49 49 49 49 49 47 45 44 43 41
27 27 27 27 27 27 26 25 24 24 24 23 22 19 17 17 15 12 10 7 5 8 10 10 9 10 16 16 12 14 14 12 9 7 11 13 13 14 14 14 14 13 11 9 8 9 12 16 20 21 21 17 15 15 17 18 18 20 21 21 20 20 20 17 16 19 17 18 20 24 30 35 36 39 41 39 37 41 47 48 48 48 48 48 47 46 44 42
27 27 27 26 27 26 26 25 23 24 24 24 23 20 18 17 13 9 6 3 4 7 10 12 11 12 18 18 16 19 18 12 9 8 13 15 13 13 14 14 15 13 11 10 10 9 12 17 19 19 18 18 17 17 18 17 18 21 22 23 24 25 27 24 21 19 17 20 24 25 28 31 30 31 34 38 40 43 46 48 49 48 48 49 49 47 46 43
27 27 27 26 26 26 26 25 24 24 24 24 24 22 21 18 14 10 5 2 5 8 10 13 14 13 17 20 19 22 22 14 7 7 14 17 13 12 13 14 14 14 13 13 13 11 14 16 15 14 15 18 19 19 19 19 19 20 21 22 23 26 29 29 28 24 19 21 27 28 29 30 27 25 27 31 40 47 46 47 50 49 47 47 49 49 47 44
27 28 27 26 26 26 25 24 23 24 24 24 23 22 21 18 14 10 5 2 6 10 11 13 16 14 16 22 23 24 25 19 12 8 12 14 12 10 12 13 13 13 13 13 13 13 16 14 10 10 12 15 18 18 17 18 19 20 20 22 24 25 24 26 30 27 24 26 29 29 32 34 29 25 25 27 37 48 48 47 48 48 47 46 48 49 48 47
27 28 27 27 26 26 25 23 23 23 23 23 22 22 21 18 14 9 5 2 5 13 12 13 18 15 16 23 26 27 25 20 14 12 14 13 11 11 11 11 12 14 14 13 12 16 18 14 10 11 11 13 15 16 16 17 18 19 19 20 23 24 21 24 27 24 25 30 33 30 31 36 35 30 27 27 33 43 48 48 47 46 47 47 47 46 46 47
27 27 27 27 26 25 24 22 23 23 23 22 22 22 21 18 13 11 9 3 3 13 12 14 18 15 18 26 28 28 25 18 15 15 16 14 12 11 11 11 13 14 12 12 14 18 19 15 12 13 12 13 16 17 18 17 18 19 20 20 21 21 19 21 22 20 21 26 34 31 21 23 28 29 29 28 30 38 44 48 49 47 45 46 47 47 45 45
27 27 27 26 26 25 23 22 23 23 23 22 21 22 20 17 13 12 10 3 2 13 14 16 18 16 22 26 27 28 21 15 16 16 14 12 12 12 13 12 14 15 13 13 15 19 20 16 15 15 14 14 16 19 18 16 17 19 20 20 18 17 17 18 18 17 16 20 28 26 16 12 14 17 21 22 27 36 42 46 50 50 46 45 48 50 50 46
27 27 27 25 25 24 22 23 23 23 23 21 21 21 20 16 12 12 9 2 3 13 14 17 19 19 23 25 25 24 17 14 15 14 13 13 12 14 15 15 16 16 14 14 16 19 19 16 15 15 14 14 16 18 16 13 14 18 20 18 15 15 15 15 16 18 20 23 23 19 15 12 13 17 19 18 21 29 39 46 50 51 49 47 48 51 52 50
26 27 26 25 25 23 22 23 23 23 22 20 21 20 18 14 11 11 6 2 5 13 13 17 20 19 21 20 19 16 14 15 13 11 13 15 13 15 18 18 19 19 17 18 22 23 21 20 20 18 17 16 17 17 15 13 15 18 18 13 13 14 14 16 16 18 23 23 21 21 18 11 13 25 26 22 23 24 32 45 50 51 50 48 48 48 50 50
26 27 26 25 24 22 22 23 24 23 22 21 20 19 18 13 10 10 3 1 8 13 13 18 19 18 18 15 13 13 15 15 13 13 14 14 14 14 17 18 19 21 21 23 27 28 26 26 25 24 25 25 22 19 16 17 17 17 14 12 13 12 12 15 15 19 22 16 15 24 22 10 11 25 28 26 30 26 29 43 50 50 50 48 46 46 46 47
25 26 26 25 24 22 22 23 24 23 22 21 19 18 17 11 9 7 1 3 13 12 14 19 18 17 19 17 14 15 16 15 15 15 14 14 15 14 15 17 19 22 23 25 28 30 29 28 28 29 30 27 25 22 20 20 18 16 14 12 14 15 16 17 16 19 16 9 17 27 26 16 9 17 25 30 35 32 29 38 46 49 48 46 44 44 45 46
25 25 25 25 23 21 22 23 24 23 21 19 17 17 16 9 8 4 2 8 14 11 16 20 16 15 19 20 18 18 17 15 16 17 17 17 16 15 16 16 17 20 23 25 27 28 28 28 29 31 31 28 27 25 22 20 19 17 14 11 12 13 14 15 15 16 8 5 20 28 25 21 13 11 21 29 35 36 32 33 38 43 47 45 42 41 42 44
25 24 25 24 21 21 22 23 23 22 21 18 15 17 14 6 5 4 4 11 12 13 21 22 18 18 19 19 19 20 20 18 18 19 18 17 17 19 20 19 18 17 18 20 21 23 26 28 27 28 29 29 28 27 24 21 21 21 16 12 8 5 5 6 6 7 5 9 23 24 18 18 19 19 24 28 31 33 35 35 33 37 43 44 42 38 37 39
24 23 24 23 21 20 22 22 21 20 20 18 15 15 11 3 3 7 10 11 12 17 21 21 19 18 19 20 20 22 22 20 20 21 21 22 22 22 20 19 19 18 18 21 22 22 25 26 23 22 24 25 27 29 26 21 21 23 22 17 10 3 0 3 3 2 4 12 21 22 15 11 17 22 25 33 35 33 37 38 34 34 39 42 39 34 30 31
24 23 22 22 20 20 22 21 19 19 18 18 16 14 9 3 4 9 11 12 15 19 20 21 20 16 17 21 23 25 25 24 25 23 24 24 24 24 22 17 16 18 21 22 21 17 16 17 15 13 16 17 21 26 26 21 19 21 23 19 15 10 4 3 4 1 3 9 15 18 11 5 11 17 22 32 34 33 36 38 35 33 35 37 35 30 25 24
23 22 21 21 19 20 22 20 18 18 17 17 16 13 8 4 6 10 12 15 18 20 21 21 20 18 20 22 22 25 24 25 28 26 26 26 25 24 20 15 13 14 17 16 14 11 12 15 12 9 11 12 12 16 19 20 20 20 20 18 17 19 14 9 10 8 4 5 9 14 12 8 14 18 21 25 28 30 33 35 35 33 33 33 31 27 23 20
22 21 20 20 19 20 21 19 18 18 17 17 15 11 9 6 7 10 13 16 18 20 23 21 19 19 22 23 23 25 25 26 28 27 27 29 27 22 16 13 11 10 12 14 15 10 10 14 12 9 12 12 10 11 14 18 17 14 21 25 22 22 18 13 12 12 7 3 5 11 15 18 19 18 19 21 23 28 32 32 35 34 33 32 29 26 23 20
22 20 19 18 18 20 20 18 17 18 17 16 13 9 8 5 7 9 12 16 17 19 22 22 20 19 21 24 26 26 27 28 28 27 28 29 25 18 13 12 11 10 10 12 16 16 14 19 20 16 14 13 13 14 15 18 17 13 20 27 25 19 17 14 7 4 2 2 4 8 14 20 20 14 15 20 19 19 21 24 29 31 32 32 29 26 24 23
21 19 17 17 17 19 19 17 17 18 15 14 11 8 7 6 7 9 12 16 17 18 19 19 19 18 21 26 28 27 27 27 28 29 28 25 21 17 16 16 15 13 10 9 13 15 15 17 19 15 12 11 14 17 16 18 21 19 15 17 19 14 11 13 7 2 2 2 3 5 9 16 22 16 10 14 17 14 13 16 20 25 30 32 31 29 27 27
22 19 16 15 16 18 17 15 17 17 14 12 9 8 9 8 7 9 13 16 17 18 20 19 18 19 22 25 26 28 28 27 30 30 24 20 21 22 20 18 13 10 10 11 13 15 15 12 12 12 9 7 12 19 22 20 22 22 16 15 18 14 10 10 7 3 2 2 2 3 2 8 20 22 13 10 12 11 10 14 18 21 27 31 33 32 30 29
22 18 15 14 15 17 15 14 15 16 15 13 9 9 11 10 9 10 13 16 17 18 20 19 17 19 23 23 24 27 29 29 32 30 23 22 26 25 17 12 11 10 12 13 12 14 17 15 14 15 11 7 9 14 20 23 21 22 22 22 20 16 12 9 9 9 4 1 3 2 1 7 16 20 18 17 17 14 10 10 12 15 19 27 33 34 33 31
23 18 15 13 15 16 14 13 15 16 16 15 12 12 14 13 12 11 12 15 17 18 18 17 16 18 21 22 24 26 28 31 31 28 24 24 26 23 18 18 18 15 15 17 16 15 17 18 21 23 19 17 15 11 13 18 20 21 23 26 25 22 17 8 5 11 10 4 3 3 1 10 15 16 17 21 21 17 14 12 10 12 15 21 29 34 36 35
23 19 16 14 15 16 14 13 17 17 16 17 16 15 16 16 15 14 15 16 15 15 16 15 15 16 17 20 23 25 27 31 31 26 23 25 25 22 24 28 26 20 16 18 20 19 18 18 22 26 26 24 19 15 14 15 17 17 19 23 25 25 24 15 5 7 9 7 5 2 1 6 11 14 15 18 19 17 16 16 13 12 14 17 24 31 36 36
22 20 17 15 16 17 13 13 17 17 16 16 17 17 18 18 17 17 18 17 14 13 15 16 14 15 16 19 22 25 27 28 28 25 24 26 25 20 22 26 25 21 16 14 17 19 18 19 22 23 25 25 22 21 21 19 19 20 20 22 24 25 28 25 19 14 8 6 4 1 3 7 8 11 14 15 17 18 18 18 15 13 15 16 19 26 32 35
21 19 17 16 18 17 14 15 19 18 16 16 16 15 16 17 19 19 18 17 14 13 16 16 13 14 18 19 22 26 26 23 24 27 27 27 25 20 19 21 24 24 19 13 14 15 16 19 19 13 10 13 14 13 16 21 25 25 23 24 25 26 26 26 29 22 9 11 11 1 5 13 11 10 12 13 17 19 20 20 17 16 17 18 20 24 29 34
21 19 16 17 18 17 15 18 21 21 19 19 18 15 13 14 17 18 18 16 13 13 17 16 12 15 19 20 23 27 26 22 23 28 29 27 26 24 23 25 25 23 18 13 13 15 18 20 20 13 6 5 6 6 10 18 23 24 25 26 26 27 25 24 26 20 11 17 20 12 15 23 17 12 13 14 16 18 19 19 16 19 21 21 21 24 28 32
21 18 17 18 17 16 18 21 23 23 22 22 20 18 17 17 16 18 18 15 12 15 16 13 12 16 18 21 26 27 27 27 26 29 31 30 30 30 30 29 26 20 17 13 12 16 21 24 24 24 20 18 18 17 13 13 16 21 26 28 27 26 25 24 22 22 22 22 22 23 28 31 27 22 19 18 19 20 19 19 20 24 25 24 24 23 25 30
21 20 19 18 16 15 19 22 22 23 24 22 20 19 22 23 20 19 18 15 14 16 15 12 13 16 18 22 27 28 28 30 29 30 32 32 33 33 31 28 25 21 17 13 11 14 22 26 26 28 27 26 28 26 22 16 13 16 20 23 27 26 24 24 24 26 27 18 17 26 28 27 28 26 24 25 26 26 25 24 26 27 26 25 26 26 26 29
22 21 20 19 17 17 19 20 21 22 23 22 19 19 22 24 23 21 20 16 12 13 16 16 16 18 19 21 26 28 30 33 33 32 32 34 36 35 31 27 23 22 19 13 12 12 18 25 26 24 22 23 24 24 26 23 16 14 15 15 21 25 26 29 29 27 22 17 20 26 24 25 28 25 24 26 26 25 24 23 24 25 23 23 25 28 29 30
22 21 19 18 19 18 19 20 21 22 22 21 19 19 21 23 23 23 22 17 10 11 19 22 19 19 20 20 23 26 29 32 35 34 33 35 36 33 31 28 23 23 23 16 14 12 13 19 19 15 15 17 16 14 15 16 14 15 16 14 17 22 25 30 30 26 23 24 28 27 26 30 30 25 25 26 24 23 22 21 22 23 22 22 25 30 32 32
21 20 19 17 17 17 19 20 21 22 22 20 17 18 20 23 24 24 22 17 13 15 20 22 21 21 21 21 22 24 26 29 33 35 34 34 33 29 28 27 25 25 26 23 18 12 12 15 16 12 10 11 8 7 8 10 12 14 15 15 17 20 22 25 29 27 26 29 30 28 32 35 28 22 24 23 19 20 21 20 20 21 22 23 26 31 33 32
20 20 20 18 16 17 19 20 22 23 21 18 17 18 20 21 24 25 21 14 15 19 20 21 23 23 22 22 22 23 25 28 31 33 29 26 27 26 22 22 24 24 25 25 22 15 12 15 19 16 9 5 5 4 8 11 12 13 17 20 19 21 24 25 28 29 29 29 28 29 35 33 22 19 20 17 16 20 22 22 21 21 22 24 28 31 30 29
20 21 21 19 17 18 18 19 22 23 20 18 18 19 20 21 23 26 22 15 14 17 18 21 24 24 24 24 23 24 26 28 29 26 19 17 22 21 17 20 25 25 22 20 22 19 14 15 20 18 9 5 5 5 10 9 8 10 17 22 21 21 25 27 28 30 31 31 32 34 36 29 23 21 19 16 18 23 26 26 21 17 22 25 27 29 27 26
Wind_Direction
360 359 357 357 356 353 348 341 334 329 327 324 323 324 324 323 321 318 315 312 310 309 307 305 303 301 299 297 295 291 285 280 276 276 274 270 266 263 259 255 253 251 250 250 248 247 246 244 242 240 238 237 235 234 233 233 234 233 233 234 236 238 239 240 242 242 244 246 246 245 243 241 239 232 232 240 240 239 250 257 256 260 260 260 259 246 237 243
360 358 357 357 357 355 351 345 338 333 330 326 326 327 329 328 326 324 320 317 315 312 310 307 305 303 300 299 297 293 289 283 277 272 270 269 268 264 260 257 254 253 251 250 249 248 247 245 243 240 238 236 235 233 231 231 231 232 232 234 237 239 241 242 244 245 246 247 247 246 246 244 241 236 230 234 236 236 245 252 252 256 261 259 256 244 239 251
359 358 357 357 357 356 353 348 342 336 332 329 328 331 333 332 330 328 324 322 320 317 314 312 311 308 304 302 298 294 290 285 279 272 268 265 264 263 261 258 256 255 253 251 249 249 248 247 244 241 238 235 234 232 230 230 230 231 232 235 238 241 243 245 245 246 247 248 248 247 248 247 244 239 234 234 234 232 239 245 245 248 256 256 253 248 246 257
359 358 357 357 357 356 353 349 344 339 335 331 330 332 334 334 332 328 324 322 321 318 316 316 315 313 310 307 303 299 294 289 281 273 270 267 264 262 261 259 258 256 255 253 250 249 249 248 246 243 239 235 233 232 230 229 229 230 231 235 239 241 243 245 245 246 247 248 249 249 248 248 246 242 239 235 235 233 234 240 239 241 251 256 257 258 253 255
359 358 357 357 357 355 352 348 343 339 337 334 332 332 333 333 330 326 322 321 320 318 316 317 316 315 311 309 307 304 302 296 287 279 276 274 270 266 262 260 258 256 255 253 252 249 249 249 247 245 242 237 233 231 230 228 228 230 232 235 238 240 242 243 243 243 243 245 247 248 248 249 248 245 242 238 235 232 230 234 237 238 248 253 254 257 250 246
359 358 358 357 357 355 351 346 342 339 339 337 334 332 332 331 328 324 321 320 321 319 317 317 315 313 310 308 306 304 303 295 290 288 283 277 273 271 269 266 262 259 256 253 251 249 248 249 248 246 244 241 236 232 230 228 227 230 233 234 236 238 239 240 240 239 239 240 241 244 246 248 248 246 244 241 235 231 229 231 236 240 244 246 244 247 245 237
358 358 358 357 357 355 351 346 342 341 341 340 335 333 331 329 327 322 320 321 322 319 317 315 311 310 309 307 304 301 296 287 288 289 282 277 274 271 270 271 271 268 264 260 256 252 248 247 246 245 243 241 238 234 232 230 227 230 232 233 234 236 237 237 236 236 236 236 237 239 242 243 244 245 245 242 237 232 229 231 238 246 249 246 238 240 247 241
358 358 357 357 357 355 351 347 344 342 342 341 337 335 333 331 328 324 322 323 322 318 315 312 310 310 310 309 306 301 290 282 283 284 281 278 274 270 266 264 265 266 265 264 262 259 254 249 246 244 242 240 237 235 233 232 230 231 233 233 233 234 235 236 235 233 233 235 236 237 239 241 242 243 244 242 239 235 229 227 235 245 250 248 238 234 242 241
357 357 357 357 357 354 352 349 345 343 342 340 338 336 335 334 331 327 325 326 321 316 313 312 313 312 309 308 307 305 296 288 284 281 281 278 272 267 265 260 257 255 254 254 254 254 254 251 248 245 243 242 240 237 234 233 232 232 234 234 234 235 234 236 236 234 231 231 233 235 238 240 240 240 242 242 240 236 232 228 232 241 246 245 240 236 237 235
357 357 357 357 356 354 352 350 346 343 342 340 339 337 337 337 333 329 328 327 320 314 312 312 312 310 309 308 307 309 305 298 292 283 278 276 275 271 267 263 258 254 251 250 249 248 248 248 247 245 244 243 242 242 238 236 234 232 235 237 238 238 236 235 236 236 233 229 228 233 237 238 237 237 241 241 240 238 234 231 233 239 245 244 240 239 240 233
356 356 357 357 356 355 353 351 347 343 341 340 339 338 338 337 333 331 329 326 319 315 314 311 309 308 309 308 306 310 307 302 299 293 288 284 282 279 273 267 260 255 251 248 247 246 244 244 245 245 244 243 241 241 241 240 239 237 238 240 240 241 241 238 237 237 236 233 228 229 235 235 233 236 239 238 239 238 235 234 234 238 244 246 241 238 240 235
355 356 356 356 356 355 354 352 347 342 341 339 339 339 338 336 333 332 329 325 323 322 319 314 309 308 308 308 308 312 310 309 310 306 305 302 292 282 275 269 262 257 253 248 246 246 244 242 242 242 242 243 241 240 241 241 242 242 243 246 244 243 244 242 241 239 237 237 231 227 233 233 232 235 237 236 238 238 236 236 235 237 241 244 242 238 238 233
354 355 356 356 355 356 354 352 347 343 341 339 340 339 338 336 334 332 331 331 333 332 327 319 312 308 306 308 312 315 316 318 320 318 319 318 310 299 286 275 266 261 258 253 248 249 249 244 242 240 239 241 241 240 240 240 243 245 247 252 251 249 247 244 244 243 239 239 233 229 235 233 231 235 236 236 238 238 237 237 236 237 238 242 242 239 239 235
353 354 355 354 355 355 354 351 347 343 341 340 340 339 338 336 334 334 335 339 340 336 329 320 315 311 309 313 319 324 328 329 327 327 326 322 317 310 300 288 273 264 261 257 251 249 252 251 247 243 240 241 241 241 240 240 243 246 250 254 255 256 252 246 246 247 243 242 235 229 236 235 231 234 235 236 238 238 238 237 236 237 238 240 241 239 240 238
352 353 354 353 353 354 354 351 348 344 342 341 340 339 338 337 336 336 340 343 341 337 331 328 327 321 323 334 341 342 341 337 330 323 318 315 315 312 306 301 290 278 267 259 252 247 248 250 250 247 243 243 243 242 241 241 241 245 252 255 255 257 257 254 253 251 247 246 240 230 236 237 232 232 233 235 237 238 239 238 237 238 238 239 240 238 239 240
351 352 353 352 352 353 353 351 349 345 342 342 341 339 339 339 338 340 345 346 343 342 349 2 356 349 14 12 357 352 345 332 322 311 307 306 307 307 307 306 301 295 286 268 252 247 247 247 248 248 245 243 244 244 245 246 244 243 249 254 256 258 260 262 261 258 252 248 242 233 236 240 235 233 232 233 235 236 238 238 237 238 239 240 239 237 238 240
350 350 351 351 352 352 352 351 349 346 343 343 342 340 340 340 341 345 350 351 354 2 21 25 15 36 46 16 358 349 335 316 306 300 301 298 297 299 302 305 303 299 295 281 255 249 251 249 246 247 246 244 243 244 244 247 247 245 247 253 259 262 264 268 269 273 263 249 243 238 239 242 238 235 232 231 233 234 236 237 237 238 239 240 240 238 238 239
349 349 350 351 351 352 352 351 349 346 345 345 344 343 341 341 345 350 353 359 14 24 29 26 27 63 26 3 0 354 334 311 300 296 292 288 288 293 297 302 304 298 295 288 267 253 249 251 251 248 246 244 242 240 238 241 246 251 257 259 264 264 265 268 263 258 249 239 240 240 242 244 241 238 234 232 232 232 235 236 237 237 238 239 240 239 238 239
349 348 349 350 351 351 351 350 349 347 346 347 347 346 343 343 346 348 351 2 22 25 25 24 31 37 9 3 8 1 352 337 315 291 285 285 287 292 297 300 301 297 292 288 275 254 243 247 252 250 247 245 244 244 243 247 252 259 263 263 265 264 261 260 255 245 230 232 231 231 242 246 245 241 236 233 231 231 233 235 236 237 237 238 238 238 238 238
348 347 348 350 350 351 350 349 348 346 346 347 348 349 347 345 346 346 349 358 14 15 18 18 18 15 5 6 6 357 356 348 333 307 290 290 288 291 296 296 297 297 294 293 283 261 245 242 245 249 253 254 254 253 253 258 260 258 259 262 264 266 262 251 249 245 237 245 238 226 237 244 244 244 240 235 232 230 231 232 234 235 236 236 236 237 236 236
347 346 348 350 350 350 349 348 348 346 346 347 348 350 352 353 353 353 349 348 360 2 10 11 5 3 3 3 358 353 357 358 349 327 304 299 297 295 293 290 291 291 290 290 282 265 249 245 246 251 259 261 259 257 259 260 259 258 259 263 264 264 262 254 250 242 230 247 247 232 237 241 239 242 241 238 233 229 228 229 231 233 234 235 235 235 235 234
346 346 348 350 349 349 348 348 347 347 346 348 351 352 353 356 356 357 352 341 2 2 3 5 359 352 356 357 349 345 349 355 355 309 293 298 301 295 287 286 289 287 283 280 278 271 259 259 265 266 259 257 258 259 263 263 261 260 257 261 262 261 263 259 253 245 232 248 251 240 245 248 244 242 237 236 234 228 226 227 228 230 233 234 235 235 234 232
346 346 348 349 349 348 348 347 347 347 346 349 352 352 352 353 352 357 355 336 8 5 355 358 356 343 343 347 341 337 339 342 347 320 299 299 290 282 281 284 287 280 275 277 279 277 270 275 288 279 259 254 256 257 262 262 259 257 255 256 258 258 263 263 258 253 245 249 253 251 255 253 249 245 233 229 233 229 226 226 227 229 230 232 234 235 235 232
345 346 348 348 348 348 347 347 346 346 347 349 353 352 351 350 347 354 350 287 4 5 353 351 352 340 336 340 334 332 333 334 341 337 327 314 288 280 281 280 278 273 277 281 281 278 274 279 284 275 263 255 255 254 254 257 256 256 255 255 257 257 260 261 262 264 257 249 247 254 266 261 253 251 240 227 229 231 229 226 226 227 228 230 232 234 235 233
345 346 348 347 347 347 347 347 345 346 348 348 352 353 350 346 341 346 343 274 349 3 358 351 350 343 339 335 329 330 330 331 336 334 328 314 293 287 279 272 272 275 282 283 281 279 275 273 272 271 269 261 255 250 246 250 255 256 253 252 256 260 263 262 262 267 269 255 244 245 263 268 257 253 247 236 230 232 232 229 227 226 227 229 230 231 233 233
346 346 347 347 346 346 346 346 345 347 348 347 351 352 348 342 336 342 340 246 330 358 359 354 349 344 340 333 328 329 328 331 332 327 324 313 297 288 279 274 275 277 278 278 279 277 275 275 273 272 274 272 262 251 243 244 253 258 255 251 255 265 269 266 259 257 261 255 246 240 242 261 260 247 242 239 236 233 233 232 228 225 226 228 229 230 231 232
345 345 346 346 346 346 345 345 346 347 347 347 350 350 345 339 333 341 344 200 335 348 352 353 349 344 341 335 332 331 326 330 329 322 325 320 304 289 282 276 273 274 276 277 273 271 275 279 277 276 277 276 264 255 251 252 261 262 256 256 262 269 272 270 264 254 250 255 257 247 242 261 267 248 237 232 234 233 232 233 229 225 226 227 229 230 230 232
344 344 345 346 346 347 345 345 346 345 346 347 348 348 342 337 333 338 354 128 345 343 347 350 347 345 345 342 339 334 326 330 330 324 322 316 305 293 286 280 275 273 271 267 265 268 275 274 274 277 273 268 261 258 261 263 267 262 256 260 266 270 272 270 267 257 252 257 263 257 249 259 266 254 246 235 234 229 226 230 229 225 225 227 229 230 230 231
343 343 344 346 346 346 346 346 345 344 345 346 347 347 341 338 337 336 356 126 337 341 344 347 347 348 353 357 352 338 329 327 324 321 317 309 304 296 289 286 281 275 269 264 265 269 272 271 273 273 267 264 261 258 254 253 258 257 255 259 261 267 270 266 262 256 254 252 255 255 247 238 259 255 247 238 237 228 219 226 228 225 225 227 229 230 231 230
342 343 344 346 345 345 345 345 345 343 344 344 343 344 343 339 339 346 82 334 334 337 339 345 351 352 357 0 357 349 338 326 318 315 309 301 299 294 291 290 285 278 272 266 266 269 270 269 268 266 264 265 266 262 253 248 250 249 254 261 263 266 266 268 262 249 249 248 247 250 246 240 253 255 246 240 235 227 217 222 226 226 225 226 229 230 232 231
341 342 344 345 345 345 344 344 345 343 341 341 340 342 343 338 346 21 100 328 333 336 338 344 350 357 2 359 357 1 357 344 331 320 310 301 293 289 292 295 290 285 280 272 270 272 271 268 265 265 265 265 267 266 255 247 244 242 251 264 273 273 265 267 257 235 225 247 247 248 248 242 235 240 247 245 238 231 226 224 224 226 226 227 229 232 234 234
340 342 343 344 345 344 343 343 344 342 339 338 339 342 343 338 358 25 347 330 334 340 341 342 346 355 4 2 0 3 3 358 349 340 330 316 304 298 295 293 290 287 287 283 283 285 281 275 270 268 266 262 263 264 257 248 240 238 243 248 260 276 263 260 245 222 211 237 243 245 246 240 239 247 248 247 243 235 232 230 225 224 225 227 230 234 237 236
339 342 342 343 344 343 342 342 343 342 339 334 335 342 344 346 8 357 345 337 334 337 339 339 342 350 358 2 3 360 357 357 353 349 342 328 317 314 308 298 288 276 275 283 288 292 293 291 279 266 262 257 252 251 249 245 235 232 233 232 226 202 190 256 236 230 235 239 242 243 243 240 248 257 251 245 244 236 231 231 228 225 223 226 230 233 236 236
338 341 342 341 342 342 341 340 342 343 337 331 331 337 346 1 359 349 345 338 332 335 340 338 338 346 357 2 4 357 350 350 349 345 341 334 324 320 317 313 297 273 269 277 280 281 286 290 282 265 261 256 249 245 245 245 239 234 230 228 227 223 226 249 238 216 199 230 238 230 224 218 234 248 248 245 245 240 235 233 231 229 225 226 230 231 232 233
337 340 341 340 340 340 340 339 342 341 337 333 327 335 0 16 354 348 343 338 334 335 338 338 336 343 354 360 4 360 349 344 347 343 340 337 326 318 317 319 310 279 265 261 264 271 268 272 282 274 261 257 252 246 241 241 244 239 228 227 232 231 237 258 264 267 240 230 234 213 208 223 234 245 248 248 250 245 241 237 234 233 229 229 231 232 235 236
336 338 340 340 339 339 338 339 341 338 338 337 330 345 17 14 353 350 340 335 334 333 336 340 342 343 346 349 355 358 349 342 346 342 337 335 328 321 321 323 316 288 268 256 259 270 263 268 281 279 268 260 246 237 227 227 235 232 221 223 223 220 235 260 269 271 264 258 242 208 208 228 241 249 239 234 244 245 242 241 236 232 229 231 236 239 244 244
334 336 339 339 338 339 337 337 341 339 339 342 340 355 16 1 348 344 329 327 331 333 335 338 340 339 337 338 344 352 345 338 343 338 330 331 328 327 330 325 316 299 286 271 268 268 262 269 276 277 276 264 240 233 225 218 219 219 219 222 218 217 236 250 259 285 251 225 246 204 198 214 225 239 233 223 229 239 245 244 239 233 230 233 240 245 248 245
333 335 340 338 337 339 337 337 341 340 342 347 345 351 358 346 335 326 320 325 329 331 333 334 334 331 330 331 336 346 342 334 338 335 325 323 325 328 325 316 312 304 288 265 260 258 256 270 280 283 281 260 234 229 225 216 214 218 222 220 213 210 225 225 224 282 218 217 270 217 202 210 212 214 216 215 221 227 232 230 227 229 231 234 239 243 245 242
335 336 339 337 337 339 338 339 341 340 343 350 348 340 340 334 321 314 318 325 327 329 330 331 328 323 327 329 331 338 338 333 337 334 323 314 317 325 323 310 301 287 269 259 254 250 247 257 279 285 281 252 227 223 222 217 212 215 215 207 210 213 213 213 217 224 193 196 242 237 239 217 217 220 211 208 230 234 217 206 206 215 224 230 235 237 240 241
339 337 336 336 338 340 341 341 341 340 343 349 348 334 330 332 329 318 316 321 324 325 325 325 323 320 326 331 331 333 332 331 335 330 317 309 316 324 325 303 281 264 256 256 253 249 245 243 254 265 263 245 233 225 223 220 214 215 213 210 215 218 208 216 236 231 218 190 187 176 291 231 221 223 220 226 244 251 238 216 203 204 214 225 231 235 239 240
339 337 336 337 339 341 344 344 342 344 347 348 344 331 326 330 333 328 324 322 319 316 316 319 323 324 327 330 331 333 329 327 330 325 313 312 319 322 317 306 302 294 271 255 249 245 242 240 247 255 256 250 248 242 228 221 217 218 217 216 220 217 203 197 236 230 227 239 196 136 280 248 232 223 221 226 236 244 248 242 227 215 214 221 228 232 236 239
338 338 336 337 340 342 345 347 344 347 352 350 341 331 325 327 330 331 332 329 319 312 315 323 329 328 329 330 329 329 327 324 324 319 312 316 322 320 315 313 312 306 282 258 251 247 246 249 251 254 257 257 255 249 234 219 213 216 217 215 218 220 215 206 201 220 223 235 243 236 292 260 237 221 212 217 225 231 238 240 236 232 228 228 230 231 233 237
340 337 335 336 339 341 343 345 345 347 352 351 341 330 326 330 334 333 333 334 329 320 321 328 332 325 325 327 324 324 325 321 319 318 318 321 325 323 320 320 320 316 301 276 262 250 242 246 250 256 266 269 268 260 245 231 226 228 223 212 210 217 219 216 220 229 228 224 227 190 228 235 219 198 193 203 219 225 231 239 243 245 242 241 242 239 236 238
342 339 336 335 337 339 340 342 344 345 348 350 345 335 332 335 335 332 334 336 332 327 326 328 328 320 320 322 319 321 324 320 319 326 327 326 328 328 324 324 326 322 314 297 278 258 242 243 247 256 278 278 273 266 246 232 231 233 227 214 210 214 217 219 225 229 239 251 248 252 241 236 215 192 200 208 216 222 227 234 246 264 262 252 252 250 245 243
346 343 339 335 335 337 339 343 344 343 345 349 347 344 342 338 333 332 337 337 328 324 324 322 319 316 317 319 317 320 327 328 324 327 328 329 333 332 327 326 325 321 312 290 270 262 250 244 245 243 241 253 255 248 228 220 221 226 224 216 211 212 213 217 222 223 229 247 246 241 247 247 238 227 230 223 219 226 226 225 247 278 275 263 262 260 252 247
348 345 341 337 337 337 340 343 343 340 342 346 347 345 342 342 342 341 342 341 329 321 318 313 313 316 318 320 320 325 336 338 330 327 329 333 335 333 330 328 323 318 313 291 264 258 250 247 252 252 250 255 259 256 243 218 209 216 222 219 213 209 210 216 219 219 221 233 241 241 249 258 260 259 259 253 247 248 248 252 272 284 278 270 269 266 259 249
347 346 344 341 340 339 339 341 341 338 338 342 345 345 342 342 346 347 345 342 331 320 318 318 316 319 324 325 326 329 335 335 331 331 333 334 333 330 329 327 321 315 311 288 263 255 250 253 263 263 264 270 271 268 261 244 214 208 215 220 218 211 210 217 221 222 222 224 238 244 251 264 269 271 273 270 264 263 269 282 289 288 282 274 266 264 262 250
348 348 346 343 340 338 338 339 339 336 335 338 342 345 343 340 340 345 345 342 337 324 324 326 321 322 329 329 327 327 331 334 332 334 336 332 329 328 325 327 325 320 315 288 266 264 256 262 273 274 280 288 284 277 269 259 244 221 211 213 217 216 216 219 223 227 226 224 237 245 253 264 270 277 278 275 273 276 286 294 292 287 286 277 264 261 259 251
350 350 350 346 340 338 338 337 337 337 336 337 340 342 342 337 336 343 344 340 347 337 326 325 323 325 332 332 326 326 331 333 329 332 336 331 327 328 326 328 328 321 319 306 282 272 264 277 289 289 302 311 295 275 265 257 242 222 211 207 212 217 221 224 227 233 236 240 245 251 258 266 270 274 274 274 276 281 292 297 288 283 286 282 266 255 252 254
349 350 352 351 343 338 337 335 336 338 336 336 338 337 338 336 334 341 343 337 341 338 327 324 324 329 337 336 330 327 330 329 323 326 333 328 326 330 328 327 329 322 318 311 296 278 268 291 309 302 305 331 316 249 221 217 212 204 201 204 209 212 217 225 230 232 237 243 246 251 258 263 264 265 270 277 278 283 295 296 284 279 283 278 257 248 255 260
347 348 350 353 349 341 338 336 336 338 335 333 334 332 335 336 331 336 341 338 339 336 329 326 326 331 340 338 333 332 332 330 325 325 329 324 323 329 327 330 340 335 324 312 301 289 272 291 315 308 286 339 354 236 206 206 211 212 206 198 198 205 210 218 225 227 231 238 241 245 250 255 262 270 277 282 282 288 297 300 293 279 267 255 247 254 264 258
345 347 347 351 352 344 339 337 335 337 335 331 331 331 334 334 332 335 338 339 343 335 326 326 325 327 335 337 337 339 336 334 332 328 330 326 319 321 330 345 354 353 342 319 300 296 286 292 316 316 296 339 2 212 205 205 211 232 221 202 196 207 213 216 222 225 227 230 234 239 244 255 273 281 280 278 280 290 299 304 298 266 241 243 255 269 271 252
Height
3116 3114 3112 3110 3108 3107 3105 3103 3102 3100 3099 3098 3097 3096 3095 3094 3093 3093 3092 3091 3090 3089 3088 3087 3086 3084 3084 3083 3083 3083 3083 3083 3083 3082 3082 3082 3082 3083 3083 3083 3083 3083 3084 3085 3087 3088 3089 3091 3093 3095 3098 3100 3102 3104 3107 3108 3111 3112 3112 3111 3107 3106 3107 3110 3114 3118 3120 3123 3128 3132 3135 3138 3140 3144 3146 3147 3148 3149 3151 3153 3153 3154 3156 3158 3159 3160 3162 3164
3115 3113 3111 3109 3108 3106 3104 3103 3101 3100 3099 3097 3096 3095 3094 3093 3092 3091 3090 3089 3088 3087 3086 3085 3084 3083 3082 3082 3081 3081 3081 3081 3081 3080 3080 3080 3080 3080 3081 3081 3081 3081 3082 3083 3084 3085 3086 3087 3089 3091 3093 3096 3097 3100 3102 3103 3105 3106 3107 3105 3101 3102 3106 3110 3114 3116 3119 3122 3126 3129 3132 3134 3137 3141 3143 3144 3145 3147 3148 3150 3150 3151 3154 3156 3157 3159 3160 3161
3115 3113 3111 3109 3107 3105 3103 3102 3100 3099 3098 3096 3095 3094 3093 3092 3091 3090 3089 3088 3087 3086 3084 3084 3083 3081 3080 3080 3079 3079 3079 3078 3078 3078 3077 3077 3078 3078 3079 3079 3079 3080 3080 3080 3081 3082 3083 3084 3085 3087 3089 3091 3093 3095 3097 3099 3100 3101 3102 3098 3097 3102 3106 3109 3111 3113 3117 3120 3123 3126 3129 3131 3133 3138 3140 3141 3143 3144 3145 3146 3147 3148 3152 3155 3156 3157 3157 3158
3115 3113 3110 3108 3106 3104 3102 3101 3099 3098 3097 3096 3094 3093 3092 3091 3090 3089 3087 3086 3085 3084 3082 3082 3081 3080 3079 3078 3077 3077 3076 3076 3075 3075 3075 3075 3076 3077 3077 3077 3078 3078 3078 3079 3079 3080 3080 3081 3082 3084 3085 3087 3089 3091 3092 3094 3096 3096 3096 3094 3096 3103 3104 3105 3108 3111 3114 3117 3120 3122 3125 3126 3129 3134 3136 3138 3140 3141 3142 3143 3145 3147 3150 3153 3154 3155 3155 3156
3114 3112 3110 3108 3105 3103 3102 3100 3098 3097 3096 3095 3094 3092 3091 3090 3089 3087 3086 3084 3083 3082 3080 3080 3079 3078 3077 3076 3075 3075 3074 3074 3073 3073 3073 3074 3074 3075 3075 3075 3076 3076 3077 3077 3077 3078 3078 3079 3079 3081 3082 3083 3085 3087 3088 3090 3092 3091 3091 3093 3097 3100 3099 3101 3104 3107 3111 3114 3116 3118 3120 3122 3126 3130 3132 3135 3136 3137 3140 3142 3144 3146 3148 3150 3151 3152 3152 3153
3114 3112 3110 3107 3105 3103 3101 3099 3098 3097 3095 3094 3093 3092 3091 3089 3088 3086 3084 3083 3082 3080 3079 3078 3077 3076 3075 3074 3074 3073 3073 3072 3071 3072 3072 3072 3072 3073 3073 3074 3074 3074 3074 3075 3075 3076 3076 3077 3077 3078 3079 3080 3082 3083 3084 3086 3088 3087 3088 3091 3093 3095 3095 3097 3100 3103 3106 3109 3111 3114 3116 3119 3123 3125 3128 3131 3132 3134 3138 3141 3142 3144 3146 3147 3148 3149 3149 3150
3113 3111 3109 3107 3105 3103 3101 3099 3097 3096 3095 3094 3092 3091 3090 3088 3087 3085 3083 3082 3081 3079 3078 3077 3075 3074 3073 3072 3072 3072 3071 3070 3070 3070 3070 3070 3071 3071 3071 3072 3072 3072 3073 3073 3073 3074 3074 3075 3075 3075 3076 3077 3079 3080 3082 3083 3084 3083 3084 3087 3089 3090 3089 3092 3096 3098 3102 3104 3107 3110 3112 3115 3118 3120 3123 3125 3127 3131 3136 3139 3139 3140 3142 3143 3145 3146 3147 3148
3113 3111 3108 3106 3104 3102 3100 3098 3097 3095 3094 3093 3091 3090 3088 3087 3086 3084 3082 3081 3079 3078 3076 3075 3073 3072 3071 3070 3070 3069 3069 3068 3068 3069 3068 3069 3069 3069 3069 3070 3070 3070 3071 3071 3072 3072 3072 3072 3073 3073 3074 3074 3075 3077 3078 3080 3081 3081 3081 3083 3084 3084 3084 3087 3091 3094 3098 3101 3104 3107 3108 3111 3114 3116 3118 3120 3124 3128 3133 3136 3136 3136 3137 3139 3141 3144 3145 3145
3112 3110 3108 3105 3103 3101 3099 3097 3096 3094 3093 3092 3090 3089 3087 3086 3084 3082 3081 3079 3078 3076 3074 3073 3071 3070 3069 3068 3067 3067 3067 3067 3067 3067 3067 3067 3067 3067 3067 3067 3067 3068 3068 3068 3069 3070 3070 3070 3070 3071 3072 3072 3073 3074 3075 3076 3078 3078 3078 3078 3078 3079 3081 3085 3087 3090 3095 3097 3100 3102 3103 3107 3110 3112 3112 3115 3120 3124 3128 3131 3132 3132 3133 3135 3138 3141 3142 3143
3112 3109 3107 3105 3102 3100 3098 3097 3095 3093 3092 3090 3089 3087 3086 3084 3082 3080 3079 3078 3076 3075 3073 3071 3069 3068 3067 3066 3066 3065 3065 3065 3065 3065 3065 3065 3065 3065 3065 3066 3065 3065 3065 3065 3066 3067 3068 3068 3068 3069 3070 3071 3071 3072 3073 3073 3074 3075 3074 3073 3074 3076 3078 3082 3083 3086 3090 3093 3096 3097 3099 3103 3106 3107 3108 3111 3116 3120 3124 3126 3127 3128 3129 3132 3136 3138 3140 3141
3111 3109 3107 3104 3102 3100 3098 3096 3094 3092 3091 3089 3087 3086 3084 3083 3081 3079 3077 3076 3074 3072 3071 3070 3068 3066 3066 3065 3064 3064 3064 3064 3064 3064 3064 3064 3064 3063 3063 3064 3063 3063 3063 3063 3064 3064 3065 3065 3066 3067 3067 3068 3068 3069 3071 3071 3071 3071 3071 3070 3072 3073 3075 3077 3079 3082 3085 3089 3093 3095 3095 3098 3102 3102 3102 3107 3112 3116 3119 3121 3123 3124 3125 3129 3133 3136 3138 3139
3110 3108 3106 3104 3102 3099 3097 3095 3093 3091 3090 3088 3086 3084 3083 3081 3079 3077 3076 3074 3072 3071 3069 3068 3067 3065 3065 3064 3063 3063 3063 3063 3062 3062 3062 3062 3062 3061 3061 3061 3061 3061 3061 3062 3062 3061 3062 3062 3063 3064 3065 3065 3066 3068 3068 3069 3068 3069 3069 3068 3069 3071 3071 3073 3076 3079 3082 3084 3089 3093 3092 3092 3096 3097 3097 3104 3109 3111 3115 3117 3119 3121 3122 3125 3129 3132 3135 3137
3110 3108 3106 3103 3101 3099 3097 3095 3093 3091 3089 3087 3085 3083 3081 3080 3077 3075 3074 3072 3070 3069 3068 3067 3066 3065 3064 3063 3063 3062 3062 3061 3061 3060 3060 3060 3060 3060 3059 3059 3059 3059 3059 3060 3060 3060 3060 3060 3061 3061 3063 3063 3063 3066 3066 3066 3066 3066 3067 3066 3067 3068 3067 3071 3074 3077 3079 3081 3085 3090 3086 3084 3090 3092 3094 3101 3105 3107 3111 3113 3115 3117 3119 3122 3125 3128 3132 3134
3109 3107 3105 3103 3100 3098 3096 3094 3092 3090 3088 3086 3084 3082 3080 3078 3076 3074 3072 3071 3069 3068 3067 3066 3065 3064 3063 3063 3062 3061 3061 3060 3059 3059 3058 3058 3058 3058 3058 3057 3057 3057 3057 3058 3059 3059 3058 3059 3059 3059 3060 3060 3061 3063 3064 3064 3064 3065 3065 3064 3065 3065 3064 3069 3073 3074 3076 3078 3082 3087 3081 3078 3084 3087 3091 3098 3101 3103 3106 3108 3111 3114 3116 3118 3121 3125 3128 3130
3109 3107 3104 3102 3100 3098 3095 3093 3091 3089 3087 3085 3083 3081 3079 3077 3074 3073 3071 3070 3069 3067 3066 3065 3064 3063 3063 3062 3062 3061 3060 3060 3059 3058 3058 3057 3056 3056 3055 3055 3055 3055 3055 3056 3056 3057 3056 3057 3057 3057 3059 3059 3060 3061 3061 3062 3062 3063 3063 3062 3063 3063 3063 3066 3070 3070 3073 3075 3079 3082 3076 3073 3079 3083 3088 3094 3096 3099 3101 3104 3108 3110 3113 3115 3117 3121 3124 3127
3108 3106 3104 3101 3099 3097 3095 3093 3091 3089 3087 3085 3082 3080 3078 3075 3073 3072 3070 3069 3068 3066 3066 3065 3064 3063 3063 3062 3062 3061 3060 3059 3059 3058 3057 3056 3055 3055 3054 3054 3053 3053 3053 3054 3055 3055 3054 3055 3055 3056 3056 3057 3058 3058 3059 3060 3060 3061 3061 3060 3061 3062 3062 3064 3066 3068 3071 3073 3075 3077 3072 3070 3074 3079 3085 3089 3092 3095 3097 3099 3103 3105 3109 3111 3114 3118 3120 3124
3107 3105 3103 3101 3098 3096 3094 3092 3090 3088 3086 3084 3082 3079 3076 3074 3073 3071 3069 3068 3067 3066 3065 3065 3064 3063 3063 3062 3062 3061 3060 3059 3058 3057 3056 3055 3054 3054 3054 3053 3052 3052 3052 3052 3053 3053 3053 3053 3054 3054 3054 3055 3056 3057 3058 3057 3057 3058 3059 3059 3059 3061 3061 3063 3065 3067 3069 3071 3071 3073 3069 3067 3071 3076 3081 3085 3088 3091 3092 3094 3098 3101 3105 3107 3111 3114 3117 3120
3107 3105 3102 3100 3098 3095 3093 3091 3089 3087 3085 3083 3081 3078 3075 3073 3072 3070 3068 3067 3066 3066 3065 3064 3064 3063 3063 3062 3062 3061 3060 3058 3057 3056 3055 3054 3053 3053 3053 3052 3052 3051 3051 3051 3052 3052 3052 3052 3052 3052 3052 3053 3054 3055 3055 3055 3055 3057 3058 3059 3059 3060 3061 3062 3064 3066 3067 3068 3068 3069 3066 3064 3069 3073 3077 3081 3084 3086 3088 3090 3094 3097 3100 3103 3107 3110 3113 3116
3106 3104 3102 3099 3097 3095 3092 3090 3088 3086 3084 3082 3080 3077 3075 3072 3070 3069 3068 3067 3066 3065 3065 3064 3064 3063 3063 3062 3061 3060 3059 3057 3056 3055 3053 3053 3053 3052 3052 3051 3051 3050 3050 3050 3050 3051 3051 3051 3051 3051 3051 3052 3053 3054 3054 3055 3055 3056 3057 3058 3058 3058 3059 3060 3063 3065 3066 3065 3065 3065 3063 3062 3067 3070 3074 3078 3081 3082 3084 3086 3089 3092 3096 3099 3102 3105 3109 3112
3106 3103 3101 3099 3096 3094 3091 3089 3087 3085 3083 3082 3080 3078 3075 3073 3071 3069 3068 3067 3066 3065 3065 3064 3063 3063 3062 3061 3060 3059 3058 3056 3054 3053 3052 3051 3051 3051 3050 3050 3050 3049 3049 3049 3049 3049 3049 3049 3048 3049 3050 3052 3053 3054 3054 3054 3054 3055 3055 3055 3056 3056 3056 3058 3060 3062 3064 3063 3061 3062 3060 3060 3064 3066 3070 3074 3077 3078 3079 3082 3084 3087 3091 3094 3097 3101 3105 3108
3106 3103 3101 3098 3095 3093 3090 3088 3086 3084 3082 3080 3078 3076 3075 3073 3070 3069 3067 3066 3066 3065 3064 3063 3062 3062 3060 3059 3058 3057 3056 3055 3053 3052 3050 3049 3050 3049 3049 3048 3048 3048 3048 3048 3047 3047 3047 3046 3047 3049 3050 3051 3052 3052 3052 3052 3053 3053 3053 3053 3053 3054 3053 3056 3058 3060 3063 3061 3058 3059 3058 3057 3060 3062 3065 3069 3072 3073 3074 3077 3080 3083 3087 3090 3093 3097 3100 3105
3105 3103 3100 3098 3095 3092 3090 3087 3085 3083 3081 3079 3076 3074 3073 3072 3070 3068 3067 3066 3066 3065 3064 3063 3062 3060 3059 3058 3057 3055 3055 3054 3053 3051 3049 3047 3048 3048 3047 3047 3047 3047 3047 3047 3046 3046 3046 3045 3047 3049 3049 3049 3049 3050 3050 3050 3051 3051 3051 3051 3050 3051 3052 3053 3055 3057 3060 3059 3056 3057 3055 3053 3056 3059 3061 3064 3066 3068 3070 3073 3076 3079 3082 3085 3088 3092 3096 3101
3105 3102 3099 3097 3094 3092 3089 3087 3084 3082 3080 3078 3076 3074 3072 3071 3070 3068 3067 3066 3065 3065 3064 3062 3061 3060 3058 3057 3055 3054 3053 3052 3052 3050 3048 3047 3047 3046 3046 3046 3046 3046 3046 3046 3046 3045 3044 3045 3047 3047 3047 3047 3047 3047 3048 3048 3048 3048 3049 3049 3048 3049 3051 3050 3052 3055 3057 3056 3054 3054 3052 3050 3053 3055 3057 3061 3062 3064 3066 3069 3072 3074 3078 3081 3085 3088 3092 3097
3104 3101 3099 3096 3094 3091 3088 3086 3084 3082 3079 3077 3076 3074 3072 3070 3069 3068 3067 3066 3065 3064 3063 3062 3061 3059 3058 3056 3054 3052 3051 3050 3049 3048 3047 3046 3045 3045 3045 3045 3044 3044 3045 3045 3045 3044 3043 3044 3045 3045 3045 3045 3045 3045 3046 3045 3046 3046 3047 3047 3046 3047 3049 3048 3050 3052 3053 3053 3052 3053 3051 3046 3049 3052 3054 3057 3059 3060 3062 3065 3067 3070 3073 3077 3081 3084 3088 3092
3103 3101 3098 3095 3093 3090 3088 3085 3083 3081 3079 3077 3075 3073 3071 3070 3068 3067 3066 3065 3065 3064 3063 3062 3060 3059 3057 3055 3053 3051 3049 3048 3047 3046 3045 3044 3043 3043 3043 3043 3042 3043 3044 3044 3044 3042 3041 3043 3043 3042 3042 3043 3042 3042 3043 3043 3043 3043 3044 3045 3045 3046 3047 3047 3049 3050 3051 3048 3048 3053 3050 3044 3046 3050 3051 3055 3057 3056 3059 3061 3063 3066 3070 3073 3076 3080 3083 3087
3102 3100 3097 3095 3092 3089 3087 3085 3082 3080 3078 3076 3075 3073 3071 3069 3068 3066 3065 3064 3064 3063 3062 3061 3060 3059 3057 3054 3051 3049 3048 3046 3045 3044 3044 3043 3042 3041 3041 3041 3040 3041 3042 3042 3042 3040 3039 3041 3041 3041 3041 3041 3040 3039 3040 3041 3041 3041 3041 3043 3044 3044 3045 3046 3047 3049 3048 3045 3046 3050 3049 3044 3045 3048 3049 3052 3053 3054 3056 3057 3060 3063 3066 3069 3072 3075 3079 3083
3101 3099 3096 3094 3091 3089 3086 3084 3082 3080 3077 3076 3074 3072 3070 3069 3067 3066 3064 3064 3064 3063 3062 3061 3060 3058 3056 3053 3050 3048 3047 3046 3045 3043 3042 3042 3041 3040 3039 3039 3039 3039 3040 3040 3039 3037 3038 3039 3039 3039 3039 3038 3038 3037 3039 3041 3040 3039 3040 3042 3042 3043 3043 3044 3045 3046 3044 3043 3044 3046 3047 3044 3043 3044 3047 3049 3050 3051 3052 3053 3056 3059 3062 3065 3068 3071 3075 3079
3100 3098 3095 3093 3091 3088 3086 3083 3081 3079 3077 3075 3073 3072 3070 3068 3067 3066 3064 3064 3064 3063 3062 3061 3059 3058 3055 3053 3050 3048 3046 3045 3045 3043 3042 3041 3040 3039 3038 3038 3038 3038 3038 3038 3035 3034 3036 3037 3037 3037 3037 3036 3036 3036 3038 3039 3038 3037 3039 3040 3040 3041 3041 3041 3043 3043 3043 3043 3041 3042 3046 3044 3039 3040 3044 3047 3047 3046 3048 3049 3052 3056 3059 3062 3065 3068 3071 3075
3099 3097 3094 3092 3089 3087 3085 3083 3080 3078 3076 3074 3073 3071 3069 3068 3067 3065 3064 3065 3064 3063 3062 3061 3059 3057 3055 3053 3051 3049 3046 3045 3044 3043 3042 3041 3039 3039 3037 3036 3036 3036 3036 3035 3032 3032 3033 3034 3034 3034 3033 3033 3033 3035 3036 3037 3036 3036 3037 3038 3038 3038 3038 3039 3040 3040 3041 3040 3038 3039 3043 3041 3036 3035 3040 3043 3042 3042 3044 3045 3048 3052 3056 3058 3062 3065 3067 3071
3098 3095 3093 3091 3088 3086 3084 3082 3080 3077 3075 3074 3072 3071 3069 3068 3066 3065 3065 3065 3064 3062 3062 3060 3058 3056 3054 3052 3050 3048 3046 3044 3043 3042 3041 3040 3038 3037 3036 3035 3034 3032 3032 3032 3029 3029 3030 3031 3031 3030 3029 3030 3031 3032 3034 3034 3034 3035 3036 3035 3036 3036 3036 3037 3037 3038 3039 3037 3034 3035 3038 3040 3035 3031 3035 3038 3038 3040 3042 3043 3045 3049 3053 3056 3059 3061 3064 3066
3097 3094 3092 3090 3087 3085 3083 3081 3079 3077 3075 3073 3072 3070 3069 3068 3066 3066 3066 3065 3063 3062 3061 3059 3058 3056 3053 3050 3048 3046 3045 3043 3042 3040 3039 3038 3037 3036 3035 3033 3032 3030 3029 3028 3027 3026 3027 3027 3026 3025 3026 3028 3029 3029 3030 3032 3033 3033 3034 3034 3035 3034 3034 3034 3034 3035 3036 3033 3031 3032 3035 3037 3033 3029 3031 3034 3035 3038 3040 3041 3043 3047 3051 3053 3056 3058 3061 3063
3096 3093 3091 3089 3087 3085 3083 3081 3078 3076 3074 3073 3072 3070 3068 3067 3067 3067 3067 3064 3063 3061 3059 3057 3056 3054 3052 3049 3047 3045 3044 3042 3040 3038 3037 3035 3035 3034 3034 3033 3031 3030 3027 3025 3025 3024 3023 3023 3023 3022 3023 3024 3026 3025 3026 3028 3030 3031 3032 3033 3034 3033 3033 3033 3032 3032 3032 3029 3028 3031 3033 3032 3028 3027 3030 3031 3032 3036 3037 3039 3041 3044 3048 3051 3053 3056 3058 3060
3095 3093 3090 3088 3086 3084 3082 3080 3078 3076 3074 3072 3071 3070 3068 3068 3067 3067 3066 3064 3063 3061 3059 3057 3055 3053 3051 3049 3046 3044 3043 3041 3039 3037 3035 3034 3032 3031 3031 3030 3030 3030 3027 3024 3024 3022 3019 3018 3019 3019 3018 3020 3021 3022 3022 3024 3026 3028 3029 3030 3031 3032 3033 3033 3030 3029 3028 3026 3026 3030 3031 3029 3025 3025 3027 3027 3029 3032 3034 3036 3039 3042 3045 3048 3050 3053 3055 3057
3094 3092 3090 3087 3085 3084 3082 3080 3078 3076 3074 3072 3071 3070 3068 3068 3068 3067 3066 3064 3063 3060 3059 3056 3054 3052 3051 3048 3046 3043 3041 3039 3037 3036 3034 3032 3029 3027 3026 3026 3026 3026 3025 3024 3023 3021 3019 3016 3015 3016 3016 3016 3017 3018 3020 3022 3024 3025 3026 3028 3028 3028 3030 3029 3027 3026 3025 3024 3025 3028 3028 3024 3022 3022 3023 3025 3027 3030 3032 3034 3037 3040 3042 3045 3048 3050 3053 3054
3094 3091 3089 3087 3085 3083 3081 3079 3077 3076 3074 3072 3071 3069 3068 3068 3067 3066 3065 3063 3061 3059 3058 3056 3053 3051 3049 3047 3046 3044 3041 3038 3036 3034 3033 3030 3028 3025 3023 3022 3022 3022 3023 3023 3020 3019 3018 3014 3013 3015 3014 3015 3015 3016 3019 3021 3021 3022 3024 3025 3025 3025 3027 3027 3025 3023 3023 3022 3022 3023 3022 3020 3019 3020 3022 3024 3025 3027 3030 3032 3035 3038 3040 3043 3045 3048 3051 3052
3093 3091 3088 3086 3084 3082 3080 3078 3077 3075 3074 3072 3070 3069 3068 3067 3067 3066 3064 3062 3060 3058 3056 3054 3052 3049 3047 3045 3044 3043 3041 3038 3036 3033 3030 3028 3025 3023 3022 3020 3020 3020 3021 3021 3019 3018 3016 3011 3011 3013 3013 3013 3015 3015 3016 3018 3018 3019 3020 3020 3021 3023 3026 3026 3024 3022 3022 3022 3019 3017 3018 3018 3019 3018 3019 3022 3023 3024 3027 3029 3033 3036 3039 3041 3043 3046 3048 3049
3092 3090 3088 3086 3084 3082 3080 3078 3076 3075 3073 3072 3070 3068 3068 3067 3066 3065 3063 3061 3060 3058 3055 3053 3050 3049 3047 3045 3043 3042 3040 3037 3035 3032 3028 3026 3023 3021 3020 3020 3020 3020 3019 3019 3018 3017 3015 3011 3009 3011 3010 3011 3013 3013 3014 3015 3015 3016 3016 3016 3019 3022 3024 3024 3024 3022 3021 3020 3016 3013 3014 3016 3017 3015 3016 3019 3021 3023 3025 3027 3030 3034 3036 3038 3040 3041 3043 3045
3091 3089 3087 3085 3084 3082 3079 3077 3076 3074 3073 3071 3069 3068 3068 3067 3066 3064 3063 3061 3059 3058 3056 3054 3051 3049 3047 3045 3042 3041 3039 3036 3034 3031 3028 3025 3022 3019 3019 3019 3018 3018 3017 3017 3015 3014 3014 3010 3007 3008 3008 3008 3009 3010 3011 3012 3013 3013 3014 3016 3018 3019 3020 3021 3022 3020 3019 3018 3014 3012 3012 3012 3012 3013 3014 3016 3019 3021 3023 3024 3026 3029 3031 3033 3035 3037 3039 3041
3090 3088 3086 3085 3083 3081 3079 3077 3075 3074 3072 3071 3069 3068 3067 3067 3065 3064 3062 3060 3059 3057 3055 3053 3052 3049 3047 3046 3042 3039 3038 3036 3033 3031 3028 3024 3021 3018 3018 3017 3017 3016 3015 3014 3013 3012 3012 3011 3007 3005 3006 3006 3006 3006 3007 3008 3010 3011 3013 3014 3015 3016 3017 3018 3019 3017 3016 3016 3014 3012 3011 3009 3009 3011 3014 3015 3016 3018 3019 3020 3022 3024 3026 3028 3030 3032 3034 3036
3088 3086 3085 3084 3083 3081 3079 3077 3076 3074 3072 3070 3069 3068 3067 3066 3065 3064 3062 3060 3058 3056 3054 3052 3051 3049 3046 3045 3042 3039 3037 3035 3033 3030 3027 3024 3020 3017 3016 3015 3014 3014 3013 3011 3011 3010 3010 3009 3006 3004 3005 3005 3004 3004 3004 3006 3008 3009 3010 3011 3012 3014 3015 3016 3016 3014 3013 3014 3013 3012 3010 3008 3007 3010 3012 3014 3014 3015 3016 3018 3019 3020 3022 3024 3025 3027 3029 3031
3087 3085 3084 3083 3082 3080 3078 3077 3076 3074 3071 3069 3068 3067 3065 3064 3064 3063 3062 3060 3057 3055 3053 3051 3050 3048 3045 3043 3042 3039 3036 3033 3031 3029 3025 3022 3019 3016 3014 3013 3012 3012 3010 3009 3008 3007 3007 3006 3003 3002 3003 3003 3002 3003 3004 3004 3005 3006 3007 3008 3009 3011 3012 3014 3014 3012 3011 3011 3011 3011 3009 3006 3005 3008 3010 3011 3012 3013 3014 3016 3016 3017 3019 3020 3021 3023 3025 3027
3085 3084 3082 3081 3080 3079 3077 3076 3075 3073 3071 3069 3067 3065 3064 3063 3062 3061 3060 3058 3056 3054 3052 3050 3049 3047 3045 3043 3041 3039 3036 3031 3029 3026 3023 3020 3019 3017 3013 3011 3010 3008 3007 3005 3005 3004 3004 3004 3001 2998 2998 2999 3000 3002 3002 3002 3003 3004 3004 3005 3007 3008 3009 3011 3011 3010 3009 3009 3008 3009 3008 3004 3003 3005 3007 3008 3009 3011 3012 3013 3014 3015 3016 3017 3018 3020 3021 3023
3085 3083 3081 3080 3079 3078 3076 3076 3074 3072 3071 3069 3067 3064 3062 3061 3060 3059 3057 3056 3054 3052 3050 3049 3047 3045 3044 3043 3040 3037 3035 3030 3025 3023 3021 3018 3016 3015 3012 3009 3007 3005 3004 3002 3002 3002 3002 3001 2998 2996 2995 2996 2996 2997 2998 2999 3000 3000 3000 3002 3004 3005 3006 3007 3008 3008 3008 3007 3007 3008 3006 3002 3001 3003 3004 3006 3007 3008 3010 3011 3012 3013 3014 3015 3016 3017 3017 3018
3084 3082 3080 3078 3077 3076 3075 3074 3073 3072 3070 3069 3067 3064 3062 3060 3058 3057 3056 3054 3051 3050 3048 3047 3046 3045 3043 3041 3039 3036 3034 3029 3023 3020 3019 3016 3013 3012 3010 3007 3005 3003 3001 3000 2999 2999 2998 2997 2996 2996 2994 2993 2993 2993 2993 2994 2995 2995 2997 2999 3000 3002 3004 3005 3006 3007 3007 3005 3006 3007 3003 2999 3000 3002 3002 3004 3004 3005 3007 3008 3010 3011 3011 3012 3013 3013 3013 3014
3083 3081 3079 3078 3076 3075 3074 3073 3071 3069 3069 3067 3066 3064 3062 3061 3058 3056 3054 3052 3050 3049 3047 3046 3046 3044 3042 3040 3038 3035 3034 3030 3024 3019 3017 3014 3011 3008 3007 3005 3003 3001 2999 2998 2998 2997 2995 2994 2994 2993 2992 2990 2990 2990 2988 2988 2990 2992 2994 2996 2997 2999 3002 3003 3004 3005 3005 3003 3004 3004 2999 2995 2998 3001 3001 3002 3002 3002 3004 3006 3007 3008 3008 3009 3009 3009 3010 3010
3083 3081 3079 3077 3075 3074 3072 3071 3069 3067 3066 3065 3064 3062 3060 3059 3058 3055 3053 3051 3049 3047 3046 3045 3045 3043 3041 3039 3036 3033 3031 3028 3024 3019 3015 3012 3008 3006 3004 3003 3000 2998 2997 2996 2995 2995 2992 2990 2989 2988 2987 2986 2986 2986 2985 2985 2988 2989 2990 2993 2995 2997 2999 3001 3002 3001 3000 3001 3001 3000 2997 2994 2996 2999 3000 3001 3001 3001 3003 3004 3005 3005 3005 3006 3006 3006 3006 3008
3081 3080 3078 3077 3075 3074 3072 3070 3068 3066 3065 3064 3062 3060 3058 3056 3055 3054 3052 3050 3048 3046 3045 3044 3043 3042 3040 3037 3034 3030 3028 3026 3023 3018 3014 3010 3007 3004 3003 3001 2999 2996 2995 2993 2993 2993 2991 2987 2985 2985 2984 2983 2983 2984 2984 2984 2986 2987 2988 2990 2992 2995 2998 2999 2999 2998 2998 3000 2998 2996 2997 2995 2994 2997 2998 2999 3000 3001 3002 3002 3002 3002 3002 3003 3002 3002 3003 3005
3080 3079 3077 3076 3075 3073 3072 3070 3068 3066 3065 3063 3062 3060 3057 3054 3053 3052 3051 3049 3047 3045 3043 3043 3042 3040 3039 3037 3033 3029 3026 3022 3018 3016 3013 3009 3005 3002 2999 2998 2996 2993 2992 2991 2990 2990 2989 2985 2983 2983 2982 2980 2980 2981 2982 2982 2984 2985 2986 2988 2990 2993 2995 2995 2996 2997 2998 2998 2995 2995 2997 2994 2993 2995 2996 2997 2998 2999 3000 3000 2999 3000 3000 2999 2999 2999 3000 3003
3080 3078 3077 3076 3074 3072 3071 3069 3067 3066 3064 3062 3060 3059 3057 3054 3052 3051 3049 3047 3046 3045 3042 3040 3039 3039 3038 3036 3033 3030 3027 3022 3015 3012 3011 3007 3003 3000 2996 2994 2993 2991 2990 2989 2987 2988 2987 2983 2981 2982 2981 2978 2978 2978 2979 2980 2981 2982 2984 2986 2988 2990 2992 2993 2994 2996 2997 2996 2994 2996 2996 2992 2992 2994 2995 2996 2998 2998 2997 2997 2997 2997 2997 2996 2996 2997 2998 3001
3080 3078 3077 3075 3074 3072 3070 3068 3066 3065 3063 3061 3060 3058 3056 3054 3051 3050 3049 3046 3045 3044 3041 3039 3037 3036 3036 3035 3033 3030 3027 3024 3018 3012 3010 3006 3002 3000 2997 2994 2992 2990 2988 2987 2986 2986 2986 2983 2981 2981 2980 2978 2976 2976 2977 2978 2979 2981 2982 2983 2985 2986 2988 2990 2991 2994 2994 2993 2993 2995 2994 2989 2989 2992 2993 2994 2995 2995 2995 2994 2994 2994 2994 2993 2993 2995 2996 2998
3080 3078 3076 3075 3073 3071 3069 3067 3065 3064 3062 3061 3060 3058 3056 3054 3051 3049 3048 3046 3044 3042 3040 3038 3035 3034 3034 3033 3031 3029 3026 3023 3019 3014 3012 3008 3003 3001 2999 2996 2993 2989 2987 2986 2985 2985 2985 2983 2981 2980 2979 2978 2977 2977 2977 2978 2979 2980 2979 2979 2980 2981 2982 2984 2986 2989 2990 2990 2992 2993 2989 2984 2985 2990 2992 2992 2993 2993 2992 2991 2991 2991 2990 2990 2991 2992 2993 2993
3080 3078 3076 3074 3073 3071 3069 3067 3065 3063 3061 3060 3058 3057 3055 3053 3051 3048 3046 3046 3045 3042 3039 3037 3035 3033 3032 3031 3029 3027 3024 3020 3017 3014 3012 3009 3005 3002 3000 2997 2994 2990 2987 2985 2985 2984 2984 2983 2981 2980 2978 2977 2977 2977 2977 2978 2979 2978 2975 2974 2975 2976 2978 2981 2983 2985 2986 2987 2988 2986 2982 2981 2985 2989 2990 2990 2990 2990 2989 2988 2987 2986 2986 2988 2989 2989 2988 2988